Location: Jackson
(42.2460°N, 84.4010°W)
Time: 03:33:51
(UTC-05:00)

Vanguard 1 - All Passes

Search period start: 15 February 2026 00:00
Search period end: 25 February 2026 00:00
Orbit: 652 x 3820 km, 34.3° (Epoch: 13 February)

Date Brightness Start Highest point End Pass type
(mag) Time Alt. Az. Time Alt. Az. Time Alt. Az.
15 Feb - 01:21:08 10° W 01:30:02 14° SW 01:38:18 10° SSW visible
15 Feb - 13:48:25 10° SSE 13:54:14 16° SE 14:01:58 10° E daylight
15 Feb - 16:02:50 10° SW 16:13:44 48° SSE 16:32:16 10° E daylight
15 Feb - 18:22:07 10° WSW 18:37:04 67° S 18:59:56 10° E visible
15 Feb - 20:43:51 10° W 21:02:36 59° SSW 21:24:59 10° SE visible
15 Feb - 23:08:40 10° W 23:27:05 34° SW 23:44:50 10° SSE visible
16 Feb - 14:05:34 10° S 14:12:42 23° SE 14:23:12 10° E daylight
16 Feb - 16:21:39 10° SW 16:32:53 54° SSE 16:52:16 10° E daylight
16 Feb - 18:41:24 10° W 18:56:41 67° S 19:19:39 10° ESE visible
16 Feb - 21:03:27 10° W 21:22:07 53° SSW 21:43:57 10° SE visible
16 Feb - 23:29:16 10° W 23:46:02 27° SW 00:02:16 10° S visible
17 Feb - 14:23:27 10° SSW 14:31:19 29° SE 14:43:48 10° E daylight
17 Feb - 16:40:36 10° WSW 16:52:09 59° SSE 17:12:12 10° E daylight
17 Feb - 19:00:44 10° W 19:16:19 65° S 19:39:16 10° ESE visible
17 Feb - 21:23:08 10° W 21:41:31 47° SSW 22:02:40 10° SE visible
17 Feb - 23:50:32 10° W 00:04:55 21° SW 00:18:54 10° S visible
18 Feb - 14:41:44 10° SSW 14:50:04 36° SE 15:04:03 10° E daylight
18 Feb - 16:59:41 10° WSW 17:11:32 63° S 17:32:06 10° E daylight
18 Feb - 19:20:07 10° W 19:35:56 62° SSW 19:58:45 10° ESE visible
18 Feb - 21:42:57 10° W 22:00:50 41° SSW 22:21:03 10° SSE visible
19 Feb - 00:13:14 10° W 00:23:44 15° SW 00:34:03 10° SSW visible
19 Feb - 12:47:45 10° SE 12:50:17 11° SE 12:53:11 10° ESE daylight
19 Feb - 15:00:17 10° SW 15:08:58 43° SSE 15:24:08 10° E daylight
19 Feb - 17:18:50 10° WSW 17:31:00 65° S 17:51:58 10° E daylight
19 Feb - 19:39:33 10° W 19:55:31 58° SSW 20:18:01 10° SE visible
19 Feb - 22:03:00 10° W 22:20:04 34° SW 22:39:02 10° SSE visible
20 Feb - 13:03:51 10° SSE 13:08:46 17° SE 13:15:24 10° E daylight
20 Feb - 15:19:03 10° SW 15:28:00 50° SSE 15:44:07 10° E daylight
20 Feb - 17:38:03 10° WSW 17:50:32 65° S 18:11:45 10° ESE daylight
20 Feb - 19:59:02 10° W 20:15:03 52° SSW 20:37:04 10° SE visible
20 Feb - 22:23:26 10° W 22:39:12 28° SW 22:56:29 10° S visible
21 Feb - 13:21:27 10° S 13:27:21 23° SE 13:36:11 10° E daylight
21 Feb - 15:37:57 10° WSW 15:47:11 55° SSE 16:04:03 10° E daylight
21 Feb - 17:57:19 10° W 18:10:04 63° S 18:31:25 10° ESE daylight
21 Feb - 20:18:37 10° W 20:34:31 46° SSW 20:55:50 10° SE visible
21 Feb - 22:44:30 10° W 22:58:17 22° SW 23:13:09 10° S visible
22 Feb - 13:39:36 10° SSW 13:46:04 30° SE 13:56:29 10° E daylight
22 Feb - 15:56:58 10° WSW 16:06:28 59° SSE 16:23:56 10° E daylight
22 Feb - 18:16:37 10° W 18:29:37 60° S 18:50:57 10° ESE visible
22 Feb - 20:38:21 10° W 20:53:56 40° SSW 21:14:15 10° SSE visible
22 Feb - 23:06:52 10° WSW 23:17:19 16° SW 23:28:23 10° SSW visible
23 Feb - 13:58:05 10° SSW 14:04:55 37° SSE 14:16:33 10° E daylight
23 Feb - 16:16:05 10° WSW 16:25:50 61° S 16:43:47 10° E daylight
23 Feb - 18:35:58 10° W 18:49:09 55° SSW 19:10:18 10° SE visible
23 Feb - 20:58:18 10° W 21:13:17 33° SW 21:32:15 10° SSE visible
24 Feb - 12:02:59 10° SSE 12:05:17 12° SE 12:07:56 10° ESE daylight
24 Feb - 14:16:47 10° SW 14:23:54 44° SSE 14:36:29 10° E daylight
24 Feb - 16:35:14 10° WSW 16:45:16 61° S 17:03:34 10° ESE daylight
24 Feb - 18:55:23 10° W 19:08:40 50° SSW 19:29:23 10° SE visible
24 Feb - 21:18:38 10° W 21:32:35 27° SW 21:49:42 10° S visible
